Temp
81 93 99 97 80 83 79 86 97 93 93 100 100 97 96 99 92 79 104 104 104 99 93 88 80 80 81 81 80 80 79 79 79 79 79 79 79 80 80 80 80 81 81 81 81 81 81 81 81
96 98 97 91 77 74 81 92 93 95 99 100 99 99 97 91 100 97 99 104 104 98 92 93 79 80 81 80 80 79 79 79 79 79 79 79 79 79 80 80 80 81 81 81 81 81 81 81 81
90 98 88 83 79 74 81 94 96 98 99 97 95 100 97 92 97 100 102 104 103 98 96 90 80 80 80 80 79 79 79 79 79 79 79 79 79 79 79 80 80 81 82 82 81 81 81 81 81
93 93 90 79 77 83 86 94 97 95 99 99 97 93 98 99 98 101 102 104 101 101 99 82 79 79 80 80 79 79 79 79 79 79 79 79 79 79 79 80 80 81 81 81 81 81 81 81 80
93 91 78 76 79 87 94 96 96 92 95 96 98 93 94 98 100 102 101 103 101 102 101 90 79 79 79 80 79 79 79 79 79 79 79 79 79 79 79 80 80 81 81 81 81 81 80 80 80
84 87 75 74 80 87 93 99 97 95 96 96 93 94 95 101 101 101 103 102 104 102 97 92 80 79 79 79 79 79 78 79 79 79 79 79 79 79 79 79 80 80 81 81 80 80 80 80 80
81 80 75 79 82 86 91 99 94 92 93 94 99 90 96 99 100 102 102 103 104 102 98 92 90 84 79 78 78 78 78 78 78 78 78 78 78 79 79 79 79 80 80 80 80 80 80 79 79
85 83 77 80 79 83 95 96 95 92 91 102 102 89 92 95 100 102 104 104 104 102 100 95 92 92 90 87 78 78 78 78 78 78 78 78 78 78 79 78 79 79 79 79 80 80 80 79 79
89 75 72 78 80 84 96 89 95 97 93 97 99 98 97 97 99 100 100 101 102 102 100 99 97 95 94 93 86 79 79 78 78 79 78 78 89 86 83 83 78 79 79 79 79 79 79 79 78
80 73 76 87 89 88 92 92 91 89 89 91 93 101 97 97 97 93 94 97 99 99 100 100 98 95 96 96 89 89 89 89 88 88 85 90 92 90 92 86 79 79 79 79 79 79 79 79 91
80 73 84 86 91 92 89 90 92 88 85 91 91 95 97 95 94 95 96 98 99 100 100 101 96 94 97 97 92 93 92 92 90 89 87 89 94 92 93 92 88 86 81 88 84 84 86 90 93
75 80 82 87 91 88 86 91 88 89 89 97 97 98 98 95 93 93 95 99 99 99 99 100 98 94 94 99 94 95 95 94 92 92 88 89 92 91 92 94 93 89 93 89 92 94 91 93 94
77 80 84 86 88 88 87 84 86 88 93 96 95 95 94 95 95 94 95 97 100 98 98 99 97 93 93 94 95 96 95 95 95 93 90 92 92 91 92 93 95 95 96 96 94 94 93 93 92
82 81 82 85 84 86 82 83 85 88 93 91 91 91 93 95 96 95 93 94 95 96 96 98 96 92 93 92 93 94 94 96 96 95 94 90 92 91 92 90 92 93 95 96 96 94 93 93 93
83 76 79 80 82 81 84 76 79 88 90 87 87 90 92 94 98 96 96 92 90 92 95 94 94 92 89 90 91 93 95 96 95 96 93 91 89 89 89 90 92 93 93 92 92 91 91 90 91
74 75 68 77 79 82 81 69 82 88 86 84 86 89 90 93 97 99 99 95 87 90 90 89 95 91 88 85 87 86 91 94 95 95 93 90 87 85 87 89 91 93 92 92 91 90 88 90 90
69 63 64 71 81 79 77 72 83 90 85 83 85 88 90 92 94 97 99 97 93 94 92 91 92 91 87 84 87 85 86 89 89 91 90 89 90 90 87 90 91 89 88 88 88 88 88 86 87
61 63 69 67 78 78 75 74 82 87 86 84 85 87 89 90 93 97 97 97 94 92 90 90 90 89 88 87 87 83 83 88 90 91 91 90 88 89 87 89 89 88 88 88 82 80 84 84 85
70 68 67 73 79 73 72 75 78 84 86 85 86 86 87 89 95 97 96 96 91 89 88 88 88 86 84 84 84 82 80 81 87 89 91 86 87 87 87 88 86 85 84 83 82 82 78 78 81
66 67 68 73 79 74 72 73 79 84 83 86 86 86 88 90 93 94 94 93 92 88 87 88 88 86 86 85 86 89 86 80 81 81 86 86 88 88 84 82 83 84 79 82 80 80 79 80 79
64 63 68 68 73 76 71 69 75 82 85 86 87 89 90 89 90 92 91 90 91 87 86 84 86 85 86 85 83 86 85 81 87 84 81 83 85 84 82 81 80 81 81 83 80 80 77 74 78
59 70 71 68 66 59 72 59 70 77 78 82 84 87 89 90 92 92 90 88 88 87 84 82 81 81 83 84 84 83 84 82 83 80 80 79 81 83 83 81 81 80 79 78 77 76 75 75 75
64 72 70 69 66 63 65 62 70 76 74 77 82 86 89 91 92 92 92 90 91 86 82 80 79 79 81 85 86 84 85 83 86 86 81 79 79 80 81 80 78 77 80 77 74 75 74 72 71
71 67 68 69 66 51 64 63 66 71 74 79 82 86 88 90 92 93 94 93 91 92 88 82 78 78 80 82 83 82 81 81 84 82 81 82 83 80 77 78 77 76 75 75 76 75 75 72 74
65 59 49 48 49 52 68 61 69 78 80 81 81 85 88 90 90 90 89 88 87 86 86 84 79 76 78 77 78 78 77 79 77 79 82 81 80 78 72 74 73 75 73 74 73 72 72 74 71
59 58 50 41 46 54 67 58 64 78 81 85 86 85 84 85 89 88 88 87 87 85 84 82 80 77 77 74 73 74 79 81 80 78 79 79 78 75 73 72 72 71 71 71 70 72 72 71 70
61 53 66 59 62 59 63 63 68 73 72 73 74 75 77 83 82 81 81 83 83 82 81 80 78 76 77 77 76 76 77 75 73 73 75 75 74 76 73 72 71 72 71 70 69 73 69 70 69
62 68 54 60 47 47 58 58 61 62 65 66 65 62 68 76 79 81 82 81 81 78 75 77 78 76 77 77 76 75 74 74 73 72 70 70 71 72 72 72 72 71 71 71 69 70 71 68 69
58 55 61 62 61 52 50 58 73 66 65 57 56 59 64 67 67 71 75 77 78 79 78 76 77 76 75 75 74 73 73 73 72 72 71 71 71 71 72 72 72 72 71 70 68 68 69 69 68
65 60 62 54 52 59 59 52 75 69 63 57 57 65 70 71 74 77 77 78 77 77 77 76 75 75 75 75 74 72 72 72 70 70 70 71 70 72 72 72 71 72 72 70 69 69 69 68 67
MSLP
1009.65 1008.58 1007.43 1006.03 1004.75 1001.67 998.77 996.62 995.16 994.48 995.27 995.67 996.44 996.67 996.10 996.34 996.97 999.11 1000.36 1001.14 1001.83 1003.46 1005.07 1006.22 1006.88 1007.30 1007.68 1008.05 1008.64 1009.15 1009.48 1009.93 1010.34 1010.69 1011.19 1011.73 1012.05 1012.27 1012.57 1012.65 1012.89 1013.13 1013.37 1013.54 1013.69 1013.78 1013.94 1014.13 1014.30
1007.69 1007.03 1006.45 1004.64 1002.72 999.74 997.25 996.19 994.39 995.01 995.33 996.49 997.03 996.93 996.72 997.41 998.55 999.94 1000.67 1001.36 1002.28 1003.77 1005.13 1005.86 1007.04 1007.37 1007.75 1008.28 1008.67 1009.26 1009.74 1010.19 1010.62 1011.11 1011.50 1011.94 1012.25 1012.52 1012.73 1012.96 1013.13 1013.35 1013.57 1013.80 1014.03 1014.09 1014.18 1014.32 1014.52
1008.17 1006.68 1005.21 1003.29 1001.14 998.77 996.56 994.87 994.69 995.41 995.96 996.87 996.92 997.45 997.43 998.33 999.73 999.77 1000.92 1001.71 1002.69 1004.03 1005.04 1006.04 1007.15 1007.66 1008.03 1008.52 1009.05 1009.50 1009.96 1010.41 1010.85 1011.33 1011.74 1012.17 1012.57 1012.81 1013.03 1013.23 1013.41 1013.56 1013.79 1013.99 1014.22 1014.27 1014.41 1014.54 1014.68
1006.60 1005.80 1004.75 1001.37 999.06 998.28 997.17 995.10 994.19 995.27 996.06 997.23 997.39 997.46 998.61 1000.04 999.98 1000.64 1001.71 1002.00 1003.04 1003.96 1004.77 1006.78 1007.29 1007.75 1008.25 1008.66 1009.22 1009.73 1010.17 1010.63 1011.07 1011.53 1011.93 1012.34 1012.71 1012.98 1013.15 1013.26 1013.46 1013.65 1013.87 1014.10 1014.36 1014.48 1014.62 1014.78 1014.87
1006.01 1003.97 1002.30 1000.26 998.71 997.45 996.34 995.97 995.51 996.30 996.50 997.18 997.49 997.41 998.36 1000.25 1000.90 1001.16 1001.75 1002.17 1002.98 1003.64 1004.66 1006.71 1007.58 1007.97 1008.45 1009.01 1009.38 1009.92 1010.36 1010.77 1011.25 1011.69 1012.09 1012.42 1012.80 1013.14 1013.34 1013.51 1013.69 1013.87 1014.11 1014.22 1014.37 1014.58 1014.70 1014.79 1014.91
1004.60 1003.34 1000.83 998.92 997.61 997.01 996.32 995.57 995.62 995.98 996.78 997.08 997.69 997.94 998.25 1000.05 1000.52 1001.20 1001.77 1002.30 1002.83 1003.64 1004.95 1006.67 1008.01 1008.38 1008.67 1009.08 1009.65 1010.15 1010.63 1011.02 1011.45 1011.83 1012.26 1012.63 1012.95 1013.37 1013.64 1013.80 1013.95 1014.07 1014.26 1014.42 1014.53 1014.68 1014.81 1014.87 1015.01
1003.39 1001.91 999.93 998.54 996.80 995.82 995.64 995.72 995.94 996.88 997.11 997.09 997.39 997.87 998.41 999.47 1000.76 1001.16 1001.80 1002.40 1002.73 1003.87 1005.32 1006.73 1007.65 1008.58 1009.13 1009.37 1009.83 1010.26 1010.73 1011.23 1011.61 1012.07 1012.41 1012.79 1013.02 1013.36 1013.55 1013.86 1014.05 1014.29 1014.48 1014.61 1014.72 1014.79 1014.85 1014.90 1015.00
1003.17 1001.65 999.59 998.26 996.74 995.51 995.17 995.69 996.76 997.58 997.35 997.54 997.66 997.94 998.30 999.36 1000.85 1001.27 1001.59 1002.12 1002.69 1003.77 1005.12 1006.52 1007.26 1008.02 1008.71 1009.47 1010.17 1010.53 1010.84 1011.17 1011.63 1011.98 1012.35 1012.69 1013.11 1013.37 1013.51 1013.81 1013.99 1014.14 1014.33 1014.46 1014.56 1014.65 1014.74 1014.79 1014.85
1003.21 1001.29 998.67 997.54 996.96 996.23 995.57 996.46 997.49 998.39 998.19 997.99 998.04 998.90 999.46 1000.46 1000.97 1001.20 1001.36 1001.97 1002.45 1003.43 1004.60 1005.89 1006.78 1007.59 1008.15 1008.89 1010.15 1010.83 1011.30 1011.63 1012.04 1012.32 1012.65 1012.89 1012.67 1013.13 1013.41 1013.35 1013.62 1013.88 1014.03 1014.09 1014.21 1014.24 1014.34 1014.44 1014.52
1001.86 1000.17 998.14 997.74 996.85 996.07 995.90 996.41 997.50 998.23 998.34 998.05 998.74 998.64 1000.01 1000.61 1000.97 1001.31 1001.27 1001.46 1002.13 1003.08 1004.00 1005.14 1006.26 1007.22 1007.65 1008.39 1009.73 1010.29 1010.80 1011.30 1011.69 1011.96 1012.49 1012.35 1012.00 1012.36 1012.44 1012.92 1013.72 1013.95 1014.11 1014.18 1014.23 1014.24 1014.24 1014.30 1013.42
1000.97 998.94 998.55 997.82 996.99 996.58 996.70 996.66 997.73 997.75 997.74 997.97 998.20 998.74 999.68 1000.43 1000.97 1001.12 1001.35 1001.33 1001.84 1002.78 1003.61 1004.50 1005.92 1007.03 1007.30 1007.83 1009.32 1009.67 1010.17 1010.58 1011.19 1011.55 1012.10 1012.01 1011.65 1012.00 1012.23 1012.43 1013.27 1013.56 1013.91 1013.56 1013.78 1013.88 1013.78 1013.11 1012.52
1000.05 999.72 999.29 997.81 997.17 997.46 997.27 997.43 997.34 997.70 997.83 997.60 998.09 998.67 999.01 1000.13 1000.75 1001.08 1001.12 1001.08 1001.61 1002.46 1003.29 1004.18 1005.62 1006.76 1007.10 1007.33 1008.66 1008.88 1009.32 1009.82 1010.38 1010.95 1011.77 1011.80 1011.56 1011.61 1011.76 1011.55 1011.81 1012.53 1012.15 1012.51 1012.24 1011.98 1012.16 1012.08 1011.91
998.91 998.96 998.72 998.50 997.93 997.70 998.52 997.99 997.73 997.50 998.22 998.31 998.75 999.12 999.35 999.80 1000.23 1001.18 1001.32 1001.26 1001.28 1002.15 1003.08 1003.93 1005.22 1006.49 1007.19 1007.33 1007.87 1008.29 1008.68 1009.24 1009.58 1010.25 1011.07 1011.35 1011.40 1011.40 1011.61 1011.44 1011.41 1011.20 1011.29 1011.22 1011.34 1011.35 1011.56 1011.55 1011.88
998.61 998.75 998.57 998.09 998.03 998.09 998.32 998.15 998.08 997.91 998.05 998.69 999.32 999.71 999.83 999.85 999.95 1000.37 1001.32 1001.43 1001.65 1002.18 1002.99 1003.84 1005.02 1006.41 1007.23 1007.53 1007.73 1008.12 1008.57 1008.48 1009.15 1009.42 1010.00 1011.09 1011.06 1011.17 1011.49 1011.61 1011.61 1011.29 1011.13 1010.95 1010.78 1010.92 1011.09 1011.18 1011.29
998.23 998.13 998.17 997.92 998.08 997.95 998.53 998.05 997.31 998.09 998.27 998.81 999.46 999.62 999.56 999.51 999.53 999.98 1000.53 1001.34 1001.85 1002.62 1003.20 1003.99 1004.99 1006.25 1007.17 1007.69 1007.97 1008.22 1008.31 1008.55 1008.93 1009.02 1009.82 1010.45 1011.00 1011.13 1011.46 1011.49 1011.30 1011.15 1011.08 1011.21 1011.29 1011.24 1011.29 1011.56 1011.48
998.45 998.19 996.99 997.25 997.87 997.64 998.19 996.44 997.34 997.77 998.14 998.47 998.92 998.77 998.93 998.93 998.82 999.25 999.98 1000.79 1002.33 1002.81 1003.59 1004.46 1005.05 1006.08 1007.26 1007.97 1008.27 1008.63 1008.51 1008.73 1008.63 1009.04 1009.64 1010.55 1011.01 1010.97 1011.01 1011.40 1011.17 1010.98 1011.13 1011.35 1011.22 1011.24 1011.21 1011.09 1010.83
997.93 995.89 996.19 996.41 996.45 997.14 997.17 996.46 996.45 996.22 997.29 997.70 998.16 998.18 998.31 998.53 998.73 998.81 999.39 1000.35 1001.67 1002.52 1003.60 1004.37 1005.00 1005.78 1007.13 1007.93 1008.24 1008.67 1008.76 1008.94 1008.96 1009.23 1009.57 1009.63 1010.76 1010.36 1011.26 1011.08 1011.01 1011.38 1011.65 1011.61 1011.32 1011.17 1011.09 1010.97 1010.98
995.26 995.62 995.07 995.31 995.15 996.07 995.98 996.15 995.66 995.83 996.35 996.90 997.43 997.65 997.85 998.06 998.24 998.62 999.31 1000.04 1001.05 1002.49 1003.54 1004.35 1005.22 1005.95 1006.69 1007.35 1008.01 1008.60 1008.79 1008.86 1008.91 1009.41 1009.70 1009.82 1010.42 1010.39 1010.64 1010.97 1011.25 1011.36 1011.46 1011.20 1011.43 1011.46 1011.39 1011.36 1010.87
995.78 995.13 994.75 994.27 994.82 995.72 995.57 995.45 995.71 995.38 995.40 995.95 996.49 996.88 997.29 997.52 997.81 998.30 999.30 1000.01 1001.03 1002.30 1003.64 1004.34 1005.10 1005.75 1006.70 1007.28 1007.76 1008.07 1008.69 1008.76 1008.79 1009.10 1009.23 1009.95 1010.23 1010.35 1010.95 1011.10 1011.13 1011.67 1011.83 1011.55 1011.66 1011.66 1011.83 1011.73 1011.35
996.29 994.76 993.82 994.42 994.13 995.25 995.37 994.84 994.87 994.65 995.17 995.15 995.84 996.13 996.67 997.03 997.45 997.99 999.10 1000.23 1000.86 1002.35 1003.73 1004.32 1004.95 1005.65 1006.44 1007.22 1007.50 1007.20 1007.86 1008.63 1008.84 1009.13 1009.73 1009.99 1010.17 1010.58 1011.19 1011.67 1011.28 1011.53 1011.65 1011.50 1011.58 1011.64 1011.51 1011.33 1011.44
995.80 994.89 993.47 993.64 994.33 994.93 995.45 994.76 994.18 994.08 994.57 995.01 995.34 995.66 996.24 996.87 997.30 997.80 999.05 1000.15 1000.94 1002.40 1003.49 1004.40 1004.96 1005.61 1006.03 1006.42 1007.21 1007.53 1008.09 1008.72 1008.83 1009.29 1010.19 1010.45 1010.60 1011.12 1011.44 1011.63 1011.75 1011.73 1011.84 1011.41 1011.55 1011.59 1011.65 1011.45 1011.27
994.75 995.10 994.04 993.93 994.29 994.48 995.10 993.24 993.42 993.47 993.99 994.47 994.97 995.21 995.56 996.31 996.93 997.65 999.29 1000.26 1001.09 1002.10 1003.42 1004.50 1005.02 1005.71 1006.15 1006.63 1007.21 1007.53 1007.60 1007.96 1008.37 1009.45 1010.33 1010.85 1011.15 1011.15 1011.28 1011.61 1011.75 1011.96 1012.06 1012.07 1012.08 1012.09 1012.23 1011.91 1011.19
994.24 994.94 994.36 994.18 994.10 994.67 994.38 993.74 991.34 992.96 993.05 993.67 994.50 995.02 995.17 995.91 996.51 997.45 998.68 1000.09 1000.92 1002.17 1003.58 1004.55 1005.41 1006.11 1006.60 1006.57 1006.82 1007.44 1007.28 1008.31 1008.62 1009.13 1010.15 1011.08 1011.62 1011.68 1011.74 1011.87 1012.24 1012.50 1012.16 1012.48 1012.61 1012.42 1012.35 1012.38 1012.03
995.33 994.90 994.91 994.58 994.37 994.56 993.23 992.96 991.29 991.06 991.85 993.15 994.39 994.89 995.34 995.92 996.64 997.47 998.47 999.54 1000.87 1001.89 1003.17 1004.90 1005.73 1006.25 1006.70 1006.95 1007.21 1007.50 1008.03 1008.31 1008.67 1009.45 1010.20 1010.45 1010.96 1011.77 1012.23 1012.35 1012.78 1012.93 1012.95 1012.81 1012.63 1012.51 1012.26 1012.24 1011.91
995.01 994.65 994.32 994.08 993.71 992.75 992.38 992.99 990.27 990.30 991.83 992.73 994.04 994.83 995.43 996.23 997.16 998.16 999.33 1000.35 1001.70 1002.57 1003.59 1004.78 1005.80 1006.73 1007.13 1007.71 1008.13 1008.33 1008.92 1009.10 1009.70 1009.94 1010.04 1010.52 1011.19 1011.92 1013.04 1013.19 1013.31 1013.21 1013.33 1013.08 1013.01 1012.79 1012.57 1012.30 1012.40
994.68 994.42 993.30 992.21 991.55 991.52 992.21 991.95 991.79 991.90 992.76 993.06 994.47 995.37 996.75 997.79 998.17 999.24 1000.03 1001.14 1002.18 1003.23 1004.23 1005.43 1006.07 1006.93 1007.68 1008.29 1008.82 1009.28 1009.61 1009.74 1010.27 1010.75 1011.02 1011.28 1011.89 1012.81 1013.47 1013.71 1013.76 1013.76 1013.66 1013.40 1013.29 1012.86 1012.78 1012.71 1012.67
993.86 993.61 993.56 992.49 992.41 991.30 991.21 993.14 994.11 994.86 995.59 996.17 996.87 997.94 998.99 998.70 999.39 1000.71 1002.03 1002.62 1003.43 1004.35 1005.17 1005.81 1006.61 1007.54 1008.30 1008.91 1009.47 1009.99 1010.45 1011.02 1011.68 1012.03 1012.09 1012.55 1012.89 1013.12 1013.69 1013.89 1013.92 1013.70 1013.52 1013.38 1013.37 1012.67 1013.01 1012.99 1012.73
993.87 993.59 993.67 992.01 990.96 990.58 990.43 992.17 993.13 996.19 997.47 998.73 999.85 1001.05 1001.71 1001.26 1001.44 1001.95 1002.57 1003.49 1004.42 1005.51 1006.37 1006.97 1007.68 1008.39 1008.97 1009.49 1010.16 1010.89 1011.48 1011.87 1012.27 1012.69 1013.07 1013.45 1013.68 1013.71 1013.87 1013.88 1013.70 1013.48 1013.41 1013.40 1013.45 1013.05 1012.89 1012.95 1012.60
993.51 993.39 993.29 992.09 990.63 990.31 990.54 991.75 992.50 996.22 998.81 1000.77 1002.17 1003.11 1003.52 1003.43 1003.86 1004.04 1004.40 1005.19 1005.80 1006.35 1007.21 1007.83 1008.48 1009.14 1009.75 1010.34 1010.90 1011.39 1011.85 1012.43 1012.72 1013.11 1013.55 1013.85 1013.89 1013.96 1013.87 1013.73 1013.55 1013.44 1013.37 1013.35 1013.43 1013.31 1012.85 1012.56 1012.49
993.00 993.14 992.34 991.69 991.44 991.17 991.52 993.86 993.99 997.15 1000.50 1002.13 1003.11 1003.28 1003.59 1003.97 1004.02 1004.26 1004.75 1005.54 1006.39 1007.12 1007.90 1008.59 1009.21 1009.75 1010.33 1010.95 1011.51 1012.06 1012.55 1013.01 1013.49 1013.75 1014.04 1014.06 1014.19 1013.95 1013.83 1013.71 1013.51 1013.33 1013.26 1013.32 1013.24 1013.10 1012.94 1012.58 1012.47
Wind_Speed
15 15 12 9 10 10 20 22 21 4 6 2 6 9 9 11 17 8 10 10 19 20 19 17 15 16 16 18 17 15 16 16 16 16 15 13 12 13 12 12 12 11 10 9 9 9 9 8 8
14 9 9 10 12 16 16 23 20 7 5 8 7 7 9 15 15 10 12 13 20 20 18 18 15 16 17 16 18 16 16 16 16 15 15 13 13 12 12 11 11 11 10 9 8 8 8 8 7
12 12 11 11 18 20 19 20 20 15 9 5 3 2 7 11 7 6 14 15 19 19 19 17 16 15 16 16 16 17 17 16 16 16 15 13 12 12 11 10 10 10 10 9 8 8 8 8 7
8 8 9 16 22 27 29 24 1 5 9 5 2 6 9 7 2 6 12 17 18 19 19 19 16 17 17 18 18 17 17 16 16 15 15 14 12 11 11 11 10 10 10 9 8 7 7 7 6
11 10 12 19 25 25 23 28 8 10 11 15 12 12 8 11 5 9 14 15 16 19 18 19 16 17 17 17 18 17 17 17 16 15 15 14 13 11 10 10 10 9 8 9 8 7 6 6 5
11 12 16 21 24 25 25 20 21 11 14 10 5 12 3 12 8 11 14 15 16 17 19 18 15 15 17 17 17 17 16 16 16 15 15 13 13 11 10 9 9 8 8 7 7 6 5 4 4
19 15 20 24 22 24 21 22 14 15 18 17 7 9 12 9 9 11 14 15 16 16 17 16 16 14 13 15 16 16 16 15 14 14 14 13 13 12 12 9 9 8 7 6 6 6 6 5 5
16 17 26 23 21 24 14 17 7 15 18 15 12 8 11 19 10 11 15 15 16 16 17 17 16 16 14 13 12 14 15 16 15 15 15 15 13 12 11 10 10 11 10 9 9 8 8 7 7
20 18 21 27 25 20 16 10 11 14 17 16 9 15 11 11 9 10 15 16 15 15 18 17 17 16 15 15 12 11 11 11 11 12 11 11 11 12 13 12 16 12 12 11 11 11 11 11 10
22 19 29 21 21 22 13 14 14 15 14 15 15 16 8 11 10 11 14 16 18 18 19 18 17 16 16 13 14 12 12 10 11 11 12 10 11 10 11 11 10 10 10 9 10 11 11 10 10
27 27 20 22 19 16 13 15 16 15 16 17 19 16 14 12 10 12 15 17 18 18 15 18 15 15 16 13 11 8 8 8 8 11 11 10 8 8 7 7 7 8 11 9 11 10 9 13 11
27 28 27 25 16 13 15 14 17 16 14 10 14 16 15 14 11 12 14 17 18 19 18 18 18 14 13 11 10 10 9 9 8 10 11 8 6 7 7 6 9 9 8 10 10 9 11 12 10
33 27 22 24 25 15 16 21 20 18 13 11 5 9 8 10 16 12 12 14 16 19 18 17 18 15 11 8 11 10 9 9 10 10 12 9 7 6 7 7 7 6 7 8 8 9 8 9 11
23 27 26 19 19 19 19 20 18 18 14 14 11 13 15 15 13 14 14 16 16 15 18 17 18 15 14 10 8 8 8 9 8 9 10 12 8 4 7 7 8 7 7 7 6 7 7 8 10
21 25 22 27 20 23 19 22 25 18 14 15 16 18 18 19 17 15 14 16 10 12 15 15 16 16 13 13 8 7 7 8 8 7 9 11 11 7 6 7 7 7 6 7 7 7 7 9 9
27 24 24 23 29 23 21 23 24 21 21 20 19 17 17 18 20 18 16 16 7 12 11 9 14 17 12 8 7 4 6 8 7 6 6 8 8 6 6 8 7 6 5 7 6 7 7 9 11
18 26 33 26 27 23 25 16 21 20 25 22 21 19 15 15 18 15 15 17 21 16 16 17 14 15 16 13 9 8 6 6 2 4 4 10 11 10 8 6 7 3 6 7 7 8 7 9 10
30 28 24 26 24 26 26 25 18 22 16 22 20 18 18 17 19 16 14 17 17 17 14 15 13 13 13 10 8 6 3 5 5 6 6 9 6 7 3 7 7 6 8 7 7 7 8 9 9
24 24 27 20 23 20 24 21 23 13 16 19 19 19 18 19 18 17 13 13 15 15 13 16 15 13 9 8 9 8 8 6 6 6 6 6 3 4 7 8 3 5 7 8 8 8 10 9 11
31 28 25 24 18 21 21 24 22 19 14 16 18 17 19 18 16 16 17 13 17 17 17 15 14 14 13 11 10 7 7 5 2 4 4 4 5 3 3 6 5 6 6 8 7 8 9 8 7
29 30 21 21 16 17 20 23 25 23 19 14 13 19 18 17 19 18 13 15 17 17 17 14 13 13 11 8 5 5 7 5 6 8 5 5 5 2 2 4 4 6 5 7 7 8 10 8 10
27 28 25 18 20 15 23 15 24 22 21 18 16 15 18 19 20 17 16 15 15 16 12 11 10 11 8 12 10 9 8 7 4 4 5 6 3 1 3 4 4 5 6 6 7 6 8 10 10
23 24 25 19 22 16 20 15 22 22 24 23 19 18 17 18 21 21 22 16 15 15 12 9 11 10 9 10 10 8 7 8 5 6 7 9 6 6 6 6 5 4 5 6 7 7 7 5 8
25 21 24 17 16 14 21 20 19 24 26 22 21 20 17 18 18 15 14 20 15 13 18 14 13 11 9 8 7 5 8 6 8 7 6 5 5 7 8 8 5 5 6 6 6 6 7 6 8
25 21 17 15 14 17 20 17 17 23 23 21 23 22 21 15 12 11 14 14 14 15 15 13 12 10 8 9 7 8 8 9 10 8 5 7 6 6 6 5 5 5 5 6 7 8 6 6 7
27 24 17 29 24 20 25 13 13 15 12 18 23 18 13 13 15 16 16 16 16 16 15 14 14 13 11 12 12 10 11 8 8 9 6 7 6 6 5 5 5 5 6 6 6 7 7 8 8
33 27 29 21 20 17 18 15 15 11 13 14 18 17 11 11 15 15 15 14 15 15 15 15 16 15 15 15 13 13 12 13 11 10 8 7 6 6 5 4 4 5 6 6 8 7 7 6 8
26 26 28 21 22 21 22 22 14 15 16 16 15 13 10 11 17 17 16 17 17 17 14 16 17 17 16 15 13 12 12 12 11 10 10 8 6 5 4 4 5 5 6 7 8 8 8 9 7
17 21 24 23 13 19 15 19 15 24 21 19 16 16 16 15 14 15 17 18 19 19 17 17 17 17 15 14 13 13 12 11 10 9 8 6 5 4 5 6 6 6 7 8 8 9 10 10 10
24 28 31 13 24 15 12 7 3 26 21 20 19 21 22 22 21 20 20 19 19 18 17 16 15 15 15 14 13 12 11 10 8 7 6 5 5 5 6 6 7 8 8 8 9 9 9 10 11
Wind_Direction
253 236 229 249 241 229 249 243 248 171 224 41 21 267 341 353 12 74 123 139 134 136 150 156 144 146 149 149 147 145 142 144 143 138 140 144 146 141 137 129 126 128 133 131 133 137 140 140 140
260 235 234 255 235 243 236 240 242 221 125 96 237 239 227 83 60 101 136 150 142 141 150 155 147 146 146 149 146 144 143 142 140 139 140 148 148 145 140 129 128 132 134 133 138 140 142 143 146
249 238 242 218 234 238 248 236 232 190 99 220 240 264 36 69 80 100 91 147 137 149 158 140 147 144 144 144 143 142 142 142 139 141 143 147 147 142 135 130 131 135 138 139 144 142 143 146 152
216 205 248 247 233 224 250 262 205 190 164 194 239 247 117 46 30 39 140 151 143 152 159 137 144 144 144 145 142 140 140 139 140 144 145 145 144 139 138 140 141 142 146 145 143 141 141 147 152
238 240 230 231 240 248 224 241 165 230 243 212 215 249 116 96 87 126 153 154 159 155 145 152 145 144 144 144 140 142 142 142 145 145 147 147 144 141 138 139 142 143 149 151 150 152 155 163 176
215 235 235 232 238 232 246 244 258 200 224 203 173 257 112 119 128 142 157 160 165 151 136 148 144 146 147 144 143 144 145 144 146 146 147 144 141 139 139 137 141 147 154 159 158 160 168 178 203
233 219 237 246 245 237 227 238 211 258 222 244 197 256 107 138 103 148 161 165 157 148 145 153 161 148 141 143 146 147 147 146 146 148 147 149 145 148 146 148 146 146 152 162 169 178 190 203 221
233 252 243 241 250 249 237 213 231 250 250 251 249 239 253 108 138 153 166 169 159 153 153 161 166 166 165 159 149 151 152 151 153 155 156 155 155 156 155 154 164 164 169 176 184 189 199 210 220
222 240 238 238 240 244 248 201 227 235 251 239 233 231 85 115 143 165 168 170 169 162 153 166 167 164 173 165 153 145 149 148 152 156 156 154 183 181 164 201 157 179 185 188 192 195 203 210 220
225 229 236 240 244 249 239 214 216 205 221 224 222 204 118 142 162 172 182 176 176 172 161 165 172 165 174 164 154 175 168 178 185 183 175 198 199 183 193 167 168 183 201 205 207 211 213 217 237
218 236 232 245 257 262 219 224 230 204 220 213 204 208 177 176 178 186 192 188 180 173 169 167 172 165 183 169 159 176 172 175 187 189 177 220 202 184 217 169 188 209 206 221 205 211 228 232 240
222 229 247 263 238 256 244 249 233 223 235 246 196 211 172 185 192 199 202 195 180 174 176 172 170 167 201 168 166 182 180 183 187 187 180 221 224 189 212 222 197 200 210 217 242 225 216 237 248
223 231 236 234 255 224 234 246 243 234 208 239 213 214 217 216 190 204 201 218 184 179 180 181 167 168 196 202 169 197 195 186 189 176 178 218 216 206 223 247 260 239 221 234 230 250 264 251 246
220 229 237 251 236 236 234 239 236 237 219 228 203 214 225 222 219 185 201 208 191 192 177 181 169 163 188 203 182 196 195 171 206 186 181 208 211 218 238 227 237 253 253 265 266 260 271 259 256
231 234 232 233 228 237 228 239 232 224 213 206 226 228 233 224 212 213 193 207 191 186 181 179 177 167 189 197 201 203 185 238 196 207 180 192 208 220 249 271 250 254 253 270 270 273 272 271 270
232 237 230 215 225 221 222 240 223 224 220 216 224 219 216 225 214 198 204 184 167 195 158 167 185 154 171 179 198 208 220 208 206 210 166 201 222 226 193 253 256 267 277 284 284 292 274 273 271
212 220 224 227 207 215 210 225 246 214 213 221 216 219 212 216 220 210 199 185 177 183 177 185 182 174 177 196 196 198 183 222 135 243 210 181 219 200 225 256 269 294 276 268 274 273 284 292 284
205 215 220 217 204 206 218 225 256 203 215 207 218 212 215 215 210 208 198 183 173 178 172 180 181 186 178 172 201 191 153 222 183 216 221 219 207 215 224 241 261 252 267 283 327 315 303 297 282
227 223 219 210 222 197 222 223 219 204 229 199 209 210 209 211 204 192 185 194 160 148 167 179 180 175 160 168 187 182 184 214 195 200 185 133 211 205 216 247 296 272 270 281 281 283 281 277 287
232 239 213 218 196 185 212 226 208 209 215 198 202 196 198 199 201 190 168 186 171 162 178 181 177 166 171 175 196 199 180 189 176 116 141 199 207 215 252 253 281 286 271 265 283 280 287 276 275
218 228 232 195 175 205 224 221 223 215 193 201 211 198 199 199 198 184 161 184 176 178 172 184 178 167 185 152 140 136 130 143 178 148 163 176 204 227 2 309 288 314 300 288 331 317 317 309 296
211 219 233 183 182 203 222 216 211 204 211 213 202 209 189 193 195 163 173 170 179 177 161 173 172 149 163 151 162 171 174 169 136 120 120 123 67 52 26 16 344 334 335 345 336 6 337 318 301
220 204 222 201 205 201 201 244 193 201 207 202 202 202 191 185 184 174 170 168 168 145 151 145 134 140 151 171 161 172 211 132 142 100 110 84 86 55 54 33 36 9 317 352 337 332 321 312 312
216 207 206 214 214 206 207 214 225 185 201 186 192 197 188 178 182 181 169 155 149 149 142 145 154 146 154 164 139 154 124 168 138 131 150 133 120 95 45 52 32 34 357 8 338 336 314 332 315
212 199 188 193 194 207 187 202 251 174 186 177 185 187 184 152 163 133 136 136 151 144 142 139 133 137 136 121 132 99 98 94 111 161 107 126 105 83 62 43 30 18 5 358 350 331 335 319 326
196 179 199 179 194 194 185 210 203 62 90 195 179 141 135 166 160 171 144 138 138 133 124 128 134 127 113 97 98 110 127 108 99 70 85 77 87 73 55 36 26 11 354 358 345 311 340 334 315
184 200 210 198 200 197 181 144 77 123 102 86 99 115 161 155 107 111 134 142 125 122 127 129 112 109 108 105 101 94 86 84 91 94 97 82 58 108 63 34 8 3 359 354 343 315 311 319 310
191 206 201 226 195 221 187 161 151 162 149 118 114 118 140 143 141 138 120 117 112 102 104 114 116 115 111 106 102 98 96 92 92 88 81 72 72 57 36 12 3 356 349 345 344 337 332 314 315
194 192 218 227 233 205 184 172 154 160 154 140 133 142 150 126 119 116 116 120 126 119 113 111 109 106 101 99 97 92 89 85 81 77 71 65 55 23 13 0 351 344 339 349 338 324 305 330 318
195 203 209 210 228 254 166 72 170 132 134 137 142 157 136 141 143 132 124 117 115 113 109 104 102 100 97 95 92 89 88 85 78 73 62 46 24 12 358 353 347 344 345 344 332 320 320 318 312